Wind_Speed
14 20 20 17 15 11 9 11 7 7 8 8 10 14 15 14 12 11 10 11 14 14 15 12 11 12 14 16 18 20 22 23 24 23 22 18 17 16 17 18 19 19 16
19 22 20 17 14 12 10 11 6 5 8 9 13 16 15 11 11 11 10 10 13 13 14 12 11 14 15 18 19 21 23 23 24 22 21 19 19 18 16 17 18 18 17
22 22 20 17 15 13 11 8 6 7 10 13 17 17 12 11 11 12 11 12 14 14 14 13 14 14 17 18 20 22 25 24 20 19 18 13 18 17 15 14 16 16 16
23 23 22 19 15 13 11 9 9 11 14 17 19 15 12 11 13 15 15 15 17 16 16 15 15 15 16 18 19 22 23 22 15 16 9 9 13 10 9 10 10 12 12
21 21 22 19 16 13 11 9 11 13 15 19 18 13 10 11 14 15 17 18 17 17 16 16 15 16 16 17 18 19 21 21 13 10 8 9 12 10 9 10 10 9 8
21 19 21 19 16 13 12 12 11 14 17 18 18 14 9 11 12 14 15 16 16 16 15 15 15 14 15 15 16 15 14 15 13 10 9 12 11 12 12 12 12 11 10
23 19 20 19 16 14 14 11 11 14 17 18 18 17 9 7 10 13 14 14 14 14 13 13 13 12 12 12 12 12 12 13 12 7 8 10 11 12 12 12 13 12 11
21 19 21 18 15 15 13 11 12 14 17 18 17 17 11 8 12 12 12 12 12 11 11 10 10 10 9 9 9 9 9 11 9 7 8 9 9 11 11 11 12 12 11
16 17 22 19 14 13 13 11 12 15 15 18 17 17 12 10 13 11 10 10 9 8 8 7 7 6 5 5 6 6 7 7 6 6 4 7 8 9 10 10 11 11 11
16 14 19 21 16 14 13 11 11 15 15 14 16 15 12 6 7 8 8 7 6 6 5 4 4 3 2 3 3 3 4 4 7 7 6 7 8 8 8 9 9 10 10
21 17 15 14 14 14 13 11 9 12 15 13 12 11 8 6 4 5 4 4 3 3 3 2 1 0 1 1 2 3 3 2 3 4 7 8 9 9 8 9 9 9 10
19 17 18 16 16 15 12 11 8 9 10 11 10 8 8 2 3 3 2 3 3 2 2 2 2 2 3 3 3 4 2 4 5 5 9 9 10 10 10 9 10 10 10
14 20 19 16 15 15 13 9 6 6 9 7 6 6 10 11 10 8 5 5 5 5 5 4 4 4 5 5 8 7 7 7 6 6 10 10 10 11 12 12 11 10 10
19 17 15 14 16 15 14 14 9 3 6 7 8 7 10 13 8 6 5 5 6 4 6 6 6 6 9 9 8 8 8 9 8 7 10 10 10 11 11 13 13 12 12
22 20 15 19 17 17 14 15 16 13 9 9 8 11 10 7 7 8 7 8 6 6 6 7 6 7 7 8 9 11 10 9 10 11 13 12 11 11 12 12 13 14 14
20 18 23 20 15 15 16 14 14 15 11 11 11 11 13 10 10 9 9 9 9 9 8 7 7 7 8 8 9 10 11 12 11 12 14 16 15 13 13 14 13 14 15
21 19 20 18 19 19 17 16 15 12 13 11 14 11 11 13 13 11 10 7 7 7 7 7 8 11 13 12 13 12 11 12 13 15 14 17 20 19 17 16 15 16 16
14 15 13 16 19 21 16 18 18 13 16 15 14 11 11 11 11 10 9 10 9 8 9 9 10 10 11 11 12 12 12 14 16 18 18 18 20 22 22 22 21 19 18
15 15 18 15 15 15 18 16 17 16 14 13 12 12 11 11 10 9 9 8 8 9 10 11 11 11 12 14 15 17 18 19 20 20 21 21 18 19 20 19 24 22 21
14 16 17 22 19 19 18 17 15 16 17 15 12 11 11 12 11 12 11 10 9 11 12 13 15 16 17 17 19 21 20 21 21 24 22 21 20 19 18 22 21 16 15
17 15 15 17 18 17 17 18 19 18 17 15 18 14 14 13 12 14 15 14 12 15 15 14 16 16 17 18 22 24 23 21 19 18 21 21 19 16 18 16 18 16 13
15 18 19 17 18 18 17 16 14 14 14 14 12 16 20 19 19 19 19 18 17 18 17 17 18 20 21 19 22 24 26 22 22 13 14 20 18 15 14 19 19 14 13
19 19 19 21 19 17 19 16 16 17 14 14 14 14 16 18 18 20 20 19 20 21 22 23 23 24 25 26 24 21 14 12 11 13 12 16 15 15 16 17 18 18 16
23 20 19 22 22 21 19 20 19 17 19 17 17 20 20 18 17 19 20 21 22 23 23 24 23 24 24 23 21 21 24 27 27 17 14 16 17 17 19 19 13 10 16
24 20 20 22 22 22 22 21 20 19 18 18 16 18 19 19 19 19 20 21 22 23 24 24 24 25 24 24 23 23 21 20 22 24 22 24 19 21 18 16 14 18 18
22 23 20 20 21 20 19 20 21 21 19 18 20 20 19 19 19 19 20 22 23 24 24 23 22 21 21 21 22 20 19 18 18 21 21 24 23 23 20 17 20 20 22
Wind_Direction
180 168 157 153 145 138 128 115 97 99 91 77 77 97 97 86 87 98 107 118 101 99 99 89 71 70 70 75 80 79 81 83 77 69 63 60 70 70 66 60 53 52 53
154 159 155 151 143 138 131 124 111 94 96 93 100 106 102 93 83 88 103 115 115 101 97 91 81 76 79 82 82 84 85 82 71 59 55 55 73 71 68 55 54 54 55
152 153 150 145 145 142 137 129 111 100 107 109 112 106 109 93 83 87 99 111 110 106 103 98 90 86 87 86 85 88 90 82 71 75 61 53 73 63 62 62 50 52 54
151 150 147 144 147 144 143 127 112 107 112 119 118 115 100 91 88 88 97 109 111 108 105 101 94 91 92 89 89 91 93 87 84 80 79 69 82 73 55 43 40 39 44
149 151 147 145 148 148 138 130 121 114 118 125 121 122 102 95 86 89 96 105 108 106 104 101 98 96 95 93 91 95 95 86 72 87 74 60 62 55 42 32 28 24 25
135 160 152 152 148 151 139 130 124 125 127 128 126 124 111 100 90 90 96 103 108 109 107 104 99 95 92 89 87 91 96 98 98 72 46 47 51 48 41 36 32 27 25
163 166 155 149 159 151 143 134 127 133 135 137 134 127 130 116 111 102 101 102 103 105 106 104 101 98 97 93 88 85 82 84 75 73 47 45 43 42 40 37 35 32 29
171 172 159 159 162 155 147 136 134 142 143 148 142 137 139 136 129 119 113 112 113 115 113 109 103 97 94 92 87 84 83 84 73 41 33 37 33 32 34 34 31 32 29
179 172 159 156 162 162 153 143 141 148 153 161 152 140 152 156 132 125 120 117 116 115 113 112 109 104 96 84 73 67 76 83 64 73 344 17 15 16 23 23 24 26 27
148 170 161 162 168 168 163 152 148 154 149 145 152 156 157 128 118 128 128 123 125 129 127 124 117 104 83 63 50 42 52 56 33 24 326 346 354 1 4 7 12 15 18
162 169 166 167 171 176 173 166 159 162 160 159 157 153 158 143 146 143 144 147 148 155 164 165 162 186 352 352 22 14 3 7 58 296 299 322 337 341 346 348 355 358 1
165 170 172 179 169 167 182 170 168 165 168 175 175 162 130 91 212 212 184 229 241 250 253 246 260 287 295 282 333 341 335 329 296 295 294 311 323 327 333 335 337 341 343
178 179 181 181 176 182 187 172 164 163 161 170 181 163 135 213 226 255 246 246 250 259 269 269 286 294 281 322 297 313 310 294 287 279 299 307 313 320 325 330 330 327 327
198 196 185 181 190 194 192 165 175 222 163 189 178 212 187 217 230 214 252 255 248 251 279 286 295 322 310 304 311 307 294 302 306 284 292 304 310 317 319 323 326 324 320
191 199 194 192 214 203 205 189 173 192 209 205 216 196 210 215 236 207 215 241 253 245 252 253 272 256 285 307 299 295 304 306 306 303 298 302 307 311 314 315 316 318 318
187 185 178 191 194 212 206 206 192 195 210 200 225 235 207 214 228 224 222 227 239 244 247 250 252 279 283 277 294 289 286 290 293 296 300 303 306 307 306 305 306 305 305
197 208 212 206 210 213 209 209 193 203 206 214 216 245 244 221 223 228 225 235 252 254 255 250 259 251 257 262 266 279 291 289 290 284 280 290 300 304 305 301 300 297 292
195 197 198 201 201 209 208 211 201 206 209 205 220 225 248 245 232 231 233 228 233 255 271 269 265 276 284 287 289 289 281 285 288 297 298 288 290 296 302 303 302 296 290
192 211 197 197 209 196 204 214 209 204 206 218 211 212 223 250 246 241 242 245 250 246 249 269 277 268 269 269 273 272 272 280 274 275 274 277 284 284 289 290 302 301 294
202 202 211 203 206 201 197 206 209 205 205 204 214 224 230 246 249 254 252 250 245 253 253 255 260 266 272 275 281 279 276 273 271 278 281 284 282 272 275 282 296 303 304
194 198 215 224 215 213 209 210 212 212 218 221 212 220 225 228 229 243 255 246 248 251 254 259 263 266 271 275 281 285 289 284 281 277 281 287 282 270 273 283 296 303 301
223 208 203 223 230 223 219 222 225 230 232 234 239 233 236 236 236 237 249 256 249 255 258 267 266 273 276 275 279 287 289 288 289 287 276 268 269 269 285 298 308 299 291
224 219 211 207 224 225 212 211 215 220 223 224 226 229 236 233 237 250 256 262 267 267 269 268 267 271 273 274 273 273 282 278 274 300 291 262 263 269 280 299 302 288 288
220 214 218 213 217 215 218 215 224 228 229 238 235 241 249 259 253 256 263 267 270 271 273 276 277 276 274 270 268 262 259 268 278 287 277 264 279 282 289 298 290 284 288
208 210 213 220 221 220 220 225 232 232 232 236 237 243 251 258 262 264 268 272 274 276 277 277 277 279 278 276 273 272 266 270 265 264 274 272 267 278 281 280 285 284 283
219 218 218 221 224 227 227 227 231 231 234 241 241 246 253 263 270 274 275 276 277 276 276 277 277 276 275 275 275 271 261 257 264 273 272 274 268 270 264 251 274 285 291
Height
1526 1530 1532 1536 1538 1541 1542 1544 1546 1546 1547 1548 1549 1550 1551 1552 1552 1553 1555 1556 1557 1558 1558 1560 1561 1561 1561 1560 1561 1561 1562 1563 1564 1564 1564 1563 1563 1563 1563 1563 1562 1560 1559
1524 1529 1533 1536 1539 1541 1543 1544 1546 1547 1548 1549 1550 1552 1553 1553 1554 1554 1555 1556 1558 1559 1560 1562 1562 1563 1563 1563 1563 1564 1565 1566 1567 1567 1566 1566 1565 1565 1565 1565 1563 1563 1562
1525 1530 1533 1537 1540 1542 1543 1545 1546 1547 1548 1550 1552 1554 1555 1555 1556 1556 1556 1557 1559 1560 1561 1562 1564 1565 1565 1565 1566 1567 1568 1569 1569 1569 1569 1568 1567 1568 1567 1567 1566 1565 1565
1525 1530 1534 1537 1540 1543 1544 1546 1547 1548 1550 1552 1554 1556 1557 1558 1558 1558 1558 1559 1560 1562 1563 1564 1566 1567 1568 1568 1568 1569 1570 1572 1572 1572 1572 1570 1569 1569 1568 1568 1568 1567 1566
1527 1531 1534 1538 1541 1543 1545 1547 1548 1549 1551 1554 1556 1558 1559 1560 1560 1560 1561 1561 1563 1564 1565 1567 1568 1569 1569 1570 1571 1571 1572 1573 1573 1574 1573 1572 1571 1570 1570 1569 1569 1568 1566
1529 1531 1536 1539 1542 1544 1546 1548 1549 1550 1552 1555 1557 1560 1561 1562 1563 1563 1564 1565 1566 1567 1568 1569 1571 1571 1572 1573 1573 1574 1574 1574 1575 1575 1573 1573 1573 1572 1571 1570 1569 1568 1568
1528 1533 1537 1540 1543 1545 1547 1549 1550 1552 1554 1557 1559 1561 1563 1563 1564 1565 1566 1567 1569 1570 1571 1572 1573 1573 1573 1574 1575 1575 1576 1576 1576 1576 1575 1575 1574 1573 1572 1572 1570 1569 1568
1529 1533 1537 1540 1544 1546 1548 1550 1551 1553 1556 1558 1560 1562 1564 1564 1565 1567 1568 1569 1570 1571 1572 1573 1574 1575 1575 1576 1576 1577 1577 1577 1576 1578 1577 1576 1575 1575 1574 1573 1572 1571 1569
1531 1533 1537 1541 1545 1547 1549 1551 1552 1554 1556 1559 1561 1563 1564 1565 1566 1568 1569 1571 1572 1573 1574 1575 1575 1576 1576 1577 1577 1578 1578 1578 1578 1579 1576 1577 1576 1575 1574 1574 1572 1572 1571
1532 1535 1538 1541 1545 1548 1549 1551 1553 1554 1556 1559 1561 1563 1565 1566 1568 1569 1571 1572 1573 1574 1575 1576 1576 1577 1578 1578 1578 1578 1579 1578 1578 1578 1577 1578 1577 1576 1575 1574 1573 1572 1571
1535 1538 1540 1542 1545 1548 1550 1552 1554 1555 1557 1559 1562 1563 1565 1566 1568 1569 1571 1572 1574 1575 1576 1576 1577 1578 1578 1578 1578 1578 1579 1578 1578 1579 1577 1577 1576 1576 1575 1574 1573 1572 1571
1536 1540 1541 1543 1545 1549 1550 1552 1554 1556 1557 1560 1562 1565 1566 1566 1567 1569 1571 1572 1574 1574 1575 1576 1577 1577 1577 1578 1577 1578 1578 1578 1579 1578 1577 1577 1576 1575 1574 1573 1572 1572 1571
1537 1540 1541 1543 1546 1548 1551 1553 1554 1556 1557 1559 1562 1565 1567 1569 1569 1569 1571 1572 1573 1573 1574 1575 1575 1576 1576 1576 1576 1577 1577 1578 1578 1577 1576 1576 1575 1574 1572 1571 1571 1571 1570
1538 1541 1542 1543 1546 1548 1551 1553 1556 1557 1559 1560 1562 1565 1567 1568 1568 1569 1569 1570 1571 1572 1573 1573 1573 1574 1575 1575 1576 1576 1576 1576 1576 1576 1575 1574 1574 1573 1572 1570 1569 1569 1568
1537 1539 1541 1543 1545 1548 1550 1553 1555 1558 1559 1561 1561 1564 1565 1567 1567 1568 1569 1570 1570 1571 1572 1573 1574 1574 1575 1575 1575 1575 1575 1574 1574 1574 1573 1573 1572 1572 1570 1569 1568 1567 1566
1532 1534 1538 1541 1544 1546 1549 1552 1554 1558 1558 1559 1560 1562 1564 1565 1566 1567 1567 1569 1569 1570 1571 1572 1573 1573 1574 1574 1574 1574 1574 1574 1573 1573 1572 1571 1570 1569 1569 1567 1566 1565 1564
1530 1533 1536 1539 1543 1546 1548 1550 1552 1556 1558 1557 1558 1559 1562 1563 1564 1565 1566 1567 1568 1569 1569 1570 1571 1572 1572 1573 1573 1573 1573 1572 1572 1571 1570 1569 1567 1566 1565 1565 1564 1563 1562
1528 1530 1533 1537 1540 1542 1544 1546 1550 1553 1555 1556 1557 1557 1558 1561 1562 1563 1564 1565 1566 1567 1567 1568 1568 1569 1570 1570 1570 1570 1570 1570 1569 1568 1567 1566 1565 1563 1562 1561 1560 1559 1558
1526 1529 1532 1535 1536 1539 1542 1544 1546 1549 1552 1554 1555 1556 1557 1558 1560 1561 1562 1563 1564 1565 1566 1566 1567 1567 1567 1568 1568 1567 1567 1567 1566 1565 1564 1563 1562 1560 1559 1557 1557 1555 1554
1524 1527 1530 1532 1534 1536 1540 1542 1544 1547 1549 1552 1553 1554 1556 1557 1557 1559 1560 1562 1563 1564 1564 1564 1564 1565 1564 1564 1563 1562 1562 1562 1561 1560 1559 1559 1558 1558 1556 1555 1553 1552 1551
1521 1524 1527 1528 1531 1534 1536 1539 1541 1543 1546 1549 1551 1552 1554 1555 1556 1556 1557 1559 1560 1560 1561 1562 1561 1561 1561 1561 1558 1557 1556 1556 1555 1555 1554 1554 1554 1552 1552 1552 1550 1548 1548
1517 1520 1524 1526 1528 1531 1533 1536 1538 1541 1544 1545 1548 1548 1551 1552 1554 1554 1554 1554 1556 1555 1556 1557 1558 1557 1556 1557 1556 1554 1551 1553 1551 1550 1550 1550 1550 1550 1549 1547 1547 1546 1544
1513 1515 1520 1524 1525 1527 1529 1532 1535 1537 1539 1542 1543 1544 1547 1549 1548 1549 1549 1550 1550 1551 1551 1551 1551 1551 1551 1551 1552 1552 1549 1547 1547 1546 1547 1547 1546 1546 1546 1546 1544 1542 1541
1509 1512 1516 1519 1522 1524 1526 1528 1530 1533 1536 1539 1541 1542 1543 1544 1545 1545 1545 1545 1545 1545 1545 1545 1545 1545 1544 1543 1544 1545 1545 1545 1544 1542 1543 1543 1543 1542 1542 1542 1540 1538 1536
1505 1508 1511 1515 1517 1520 1522 1524 1527 1529 1531 1533 1536 1538 1539 1540 1540 1541 1541 1540 1540 1540 1539 1539 1539 1539 1539 1538 1538 1538 1538 1538 1539 1539 1536 1539 1540 1538 1539 1537 1536 1535 1535
1503 1505 1507 1510 1513 1515 1518 1519 1522 1524 1526 1528 1532 1534 1535 1535 1536 1536 1536 1535 1535 1534 1534 1533 1533 1533 1533 1532 1532 1531 1532 1533 1533 1533 1532 1533 1533 1535 1534 1532 1531 1532 1529